TimeEDT,TemperatureF,Dew PointF,Humidity,Sea Level PressureIn,VisibilityMPH,Wind Direction,Wind SpeedMPH,Gust SpeedMPH,PrecipitationIn,Events,Conditions,WindDirDegrees,DateUTC
12:54 AM,28.0,21.9,78,30.42,10.0,Calm,Calm,-,N/A,,Clear,0,2012-10-13 04:54:00
1:54 AM,26.1,21.9,84,30.42,10.0,Calm,Calm,-,N/A,,Clear,0,2012-10-13 05:54:00
2:54 AM,25.0,21.0,85,30.41,10.0,South,4.6,-,N/A,,Clear,170,2012-10-13 06:54:00
3:54 AM,24.1,21.9,91,30.43,10.0,Calm,Calm,-,N/A,,Clear,0,2012-10-13 07:54:00
4:54 AM,24.1,21.0,88,30.45,10.0,Calm,Calm,-,N/A,,Clear,0,2012-10-13 08:54:00
5:54 AM,23.0,21.0,92,30.46,10.0,Calm,Calm,-,N/A,,Clear,0,2012-10-13 09:54:00
6:54 AM,23.0,19.9,88,30.48,10.0,Calm,Calm,-,N/A,,Clear,0,2012-10-13 10:54:00
7:54 AM,25.0,21.9,88,30.49,10.0,Calm,Calm,-,N/A,,Clear,0,2012-10-13 11:54:00
8:54 AM,32.0,26.1,79,30.50,10.0,Calm,Calm,-,N/A,,Clear,0,2012-10-13 12:54:00
9:54 AM,37.9,23.0,55,30.49,10.0,Calm,Calm,-,N/A,,Clear,0,2012-10-13 13:54:00
10:54 AM,42.1,23.0,47,30.48,10.0,Variable,4.6,-,N/A,,Clear,0,2012-10-13 14:54:00
11:54 AM,45.0,21.9,40,30.47,10.0,Variable,3.5,-,N/A,,Clear,0,2012-10-13 15:54:00
12:54 PM,45.0,21.9,40,30.43,10.0,West,6.9,-,N/A,,Unknown,260,2012-10-13 16:54:00
1:54 PM,48.0,19.9,33,30.40,10.0,Variable,6.9,-,N/A,,Clear,0,2012-10-13 17:54:00
2:54 PM,48.0,19.9,33,30.38,10.0,SW,5.8,-,N/A,,Clear,220,2012-10-13 18:54:00
3:54 PM,48.9,21.0,33,30.36,10.0,South,3.5,-,N/A,,Clear,190,2012-10-13 19:54:00
4:54 PM,46.9,21.9,37,30.35,10.0,SW,3.5,-,N/A,,Clear,220,2012-10-13 20:54:00
5:54 PM,46.9,25.0,42,30.35,10.0,Calm,Calm,-,N/A,,Mostly Cloudy,0,2012-10-13 21:54:00
6:54 PM,43.0,30.0,60,30.34,10.0,SSE,3.5,-,0.00,,Clear,160,2012-10-13 22:54:00
8:54 PM,45.0,26.1,48,30.30,10.0,Calm,Calm,-,0.00,,Overcast,0,2012-10-14 00:54:00
10:54 PM,46.9,24.1,41,30.26,10.0,SE,4.6,-,N/A,,Overcast,140,2012-10-14 02:54:00